Погода в Зилупе

Латвия     56°23′20″N   28°07′13″E
темп.,
°C
ветер,
м/с
пор.,
м/с
влажн.,
%
обл.,
%
осадки,
мм/ч
давл.,
гПа
погр.,
м
7 марта, вс
вс723:00−1зюз81765100 0.0 10051135
02:000зюз81685100 0.1 10011284
05:00−1сз81393100 1.9 9981176
08:00−3юз3682100 2.4 997334
11:00−2з71578100 1.1 9971760
14:000зсз8154393 1.4 9982338
17:00−2зсз6136595 0.1 9981812
20:00−4з6127595 0.1 9991192
8 марта, пн
пн823:00−4зсз51089100 0.3 1000809
02:00−4сз4990100 0.8 1002722
05:00−7ссз4108440 0.1 1004621
08:00−7ссз598870 0.2 1007799
11:00−6ссз5770100 0.2 1010844
14:00−5ссз586599 0.2 1012930
17:00−5с486555 0.0 10141044
20:00−8с398028 0.0 1016530
9 марта, вт
вт923:00−10ссз27850 0.0 1018311
02:00−11сз26880 0.0 1019256
05:00−11сз23920 0.0 1020114
08:00−10зсз13849 0.0 1021170
11:00−5з226176 0.0 1021634
14:00−3зюз245780 0.0 1021912
17:00−3юз3763100 0.0 1019886
20:00−4зюз41069100 0.0 1019533
10 марта, ср
ср1023:00−4зюз41167100 0.0 1018570
02:00−4зюз31076100 0.0 1018486
05:00−4зюз31080100 0.0 1018513
08:00−4зюз3881100 0.1 1019440
11:00−2зюз249099 1.0 1020345
14:000з118899 2.6 1020286
17:00−3св3690100 1.4 1020327
20:00−6всв3795100 1.5 1020278
11 марта, чт
чт1123:00−6св2492100 1.2 1020248
02:00−9ссв249697 1.3 1020157
05:00−10ссв1196100 0.0 102081
08:00−8ююв019197 0.1 102097
11:00−3ю357890 0.0 1018712
14:00−1ю576895 0.1 10161072
17:00−1ююв4976100 0.0 1013929
20:00−2ю71569100 0.0 1010925